Location: Newark
(9.4667°S, 159.8167°E)
Time: 21:24:04
(UTC+00:00)

Courier 1B Rocket - Pass Details

Date: 28 November 2019
Orbit: 920 x 1202 km, 28.2° (Epoch: 07 December)

Event Time Altitude Azimuth Distance (km) Brightness Sun altitude
Rises 21:19:02 0° 269° (W) 3,660 7.5 33.7°
Reaches altitude 10° 21:22:34 10° 286° (WNW) 2,668 6.9 34.5°
Maximum altitude 21:26:51 19° 329° (NNW) 2,074 6.5 35.5°
Drops below altitude 10° 21:31:03 10° 12° (NNE) 2,601 7.3 36.5°
Sets 21:34:28 0° 30° (NNE) 3,535 8.0 37.3°
